Location: Brusselsch Zeekanaal
(50.8667°N, 4.3667°E)
Time: 10:15:06
(UTC+00:00)

Helios 1A Rocket - Pass Details

Date: 08 November 2025
Orbit: 439 x 451 km, 98.3° (Epoch: 11 December)

Event Time Altitude Azimuth Distance (km) Brightness Sun altitude
Rises 05:27:38 0° 189° (S) 2,447 6.2 -12.6°
Reaches altitude 10° 05:29:52 10° 202° (SSW) 1,575 5.0 -12.3°
Maximum altitude 05:32:48 27° 263° (W) 885 3.3 -11.8°
Enters shadow 05:35:17 13° 319° (NW) 1,409 4.4 -11.4°
